Welcome to Northern Hawkes Bay. New Zealand.
PWS Header
      nz Flag



Hit Counter


W3C Valid W3C Valid logo


    Wairoa

Select any of the Stations below to visit their websites.










Historic Data from Weather Underground
Select the location of interest below. Wairoa is the default. Please have patience, this Data is slow to load in.
Northern Hawkes Bay Historical Data
Daily Summary for February 7, 2017 Units:  English    Metric   Both
« Previous Day
Next Day »
Daily Weekly Monthly Yearly Custom
  High: Low: Average:
Temperature: 87.8 °F 61.3 °F 73.6 °F
Dew Point: 68.5 °F 56.5 °F 62.2 °F
Humidity: 99% 43% 71%
Wind Speed: 16.8mph 0mph 5.8mph
Wind Gust: 24.4mph - -
Wind- - SW
Pressure: 30.1 in 29.8 in -
Precipitation: 0.17 in    
Historical Graphs
 
 
Tabular Data for February 7, 2017
Time Temperature Dew Point Pressure Wind Wind Speed Wind Gust Humidity Rainfall Rate (Hourly) solar
00:03 73.8 °F 56.7 °F 29.9 in NNW 4.5 mph 7.6 mph 55% 0 in 0 W/m2
00:08 73.6 °F 56.8 °F 29.9 in NNW 6 mph 9.2 mph 56% 0 in 0 W/m2
00:13 73.9 °F 56.8 °F 29.9 in NNW 5.4 mph 9.2 mph 55% 0 in 0 W/m2
00:18 73.9 °F 56.8 °F 29.9 in North 3.1 mph 9.2 mph 55% 0 in 0 W/m2
00:23 73.6 °F 56.8 °F 29.9 in NNW 3.1 mph 8.3 mph 56% 0 in 0 W/m2
00:28 73.4 °F 56.8 °F 29.9 in NNW 3.1 mph 6.9 mph 56% 0 in 0 W/m2
00:33 73.4 °F 56.8 °F 29.9 in NNW 5.4 mph 9.2 mph 56% 0 in 0 W/m2
00:43 73 °F 56.8 °F 29.9 in NNW 3.1 mph 9.2 mph 57% 0 in 0 W/m2
00:48 72.7 °F 57 °F 29.9 in NNW 5.4 mph 8.3 mph 58% 0 in 0 W/m2
00:53 73.2 °F 57 °F 29.9 in NNW 8.3 mph 11.4 mph 57% 0 in 0 W/m2
00:58 73.8 °F 56.7 °F 29.9 in NNW 6 mph 11.4 mph 55% 0 in 0 W/m2
01:03 73.8 °F 56.7 °F 29.9 in NNW 3.8 mph 11.4 mph 55% 0 in 0 W/m2
01:08 73.2 °F 56.7 °F 29.9 in NNW 3.8 mph 9.2 mph 56% 0 in 0 W/m2
01:13 73 °F 56.5 °F 29.9 in NNW 4.5 mph 7.6 mph 56% 0 in 0 W/m2
01:18 72.9 °F 56.8 °F 29.9 in North 3.1 mph 7.6 mph 57% 0 in 0 W/m2
01:23 72.7 °F 56.7 °F 29.9 in North 3.1 mph 7.6 mph 57% 0 in 0 W/m2
01:28 72.3 °F 56.7 °F 29.9 in North 3.1 mph 5.4 mph 58% 0 in 0 W/m2
01:33 72.5 °F 56.8 °F 29.9 in North 3.1 mph 7.6 mph 58% 0 in 0 W/m2
01:38 72.3 °F 56.7 °F 29.9 in North 3.8 mph 7.6 mph 58% 0 in 0 W/m2
01:43 72.1 °F 57 °F 29.9 in North 3.1 mph 6.9 mph 59% 0 in 0 W/m2
01:48 72.1 °F 57 °F 29.9 in North 3.8 mph 7.6 mph 59% 0 in 0 W/m2
01:53 72.1 °F 57 °F 29.9 in NNE 3.8 mph 7.6 mph 59% 0 in 0 W/m2
01:58 72.1 °F 57 °F 29.9 in North 3.1 mph 8.3 mph 59% 0 in 0 W/m2
02:03 72 °F 57.4 °F 29.9 in North 4.5 mph 8.3 mph 60% 0 in 0 W/m2
02:08 72.1 °F 57.6 °F 29.9 in North 3.1 mph 9.2 mph 60% 0 in 0 W/m2
02:13 72.1 °F 57.6 °F 29.9 in NNW 6 mph 9.2 mph 60% 0 in 0 W/m2
02:18 72.3 °F 58.1 °F 29.9 in NNW 4.5 mph 8.3 mph 61% 0 in 0 W/m2
02:23 72.3 °F 58.1 °F 29.9 in North 5.4 mph 8.3 mph 61% 0 in 0 W/m2
02:28 72.3 °F 58.1 °F 29.9 in NNW 5.4 mph 9.2 mph 61% 0 in 0 W/m2
02:33 72.3 °F 58.1 °F 29.9 in NNW 4.5 mph 9.2 mph 61% 0 in 0 W/m2
02:38 72.3 °F 58.1 °F 29.9 in NNW 3.8 mph 7.6 mph 61% 0 in 0 W/m2
02:43 72.5 °F 58.3 °F 29.9 in NNW 4.5 mph 8.3 mph 61% 0 in 0 W/m2
02:48 72.5 °F 58.3 °F 29.9 in North 6 mph 8.3 mph 61% 0 in 0 W/m2
02:53 72.5 °F 58.3 °F 29.9 in North 5.4 mph 9.8 mph 61% 0 in 0 W/m2
02:58 72.5 °F 58.3 °F 29.9 in North 5.4 mph 9.8 mph 61% 0 in 0 W/m2
03:03 72.5 °F 58.8 °F 29.9 in North 3.8 mph 9.8 mph 62% 0 in 0 W/m2
03:08 72.5 °F 58.8 °F 29.9 in NNE 7.6 mph 9.8 mph 62% 0 in 0 W/m2
03:13 72.7 °F 58.8 °F 29.9 in North 6 mph 9.8 mph 62% 0 in 0 W/m2
03:18 72.9 °F 59.2 °F 29.9 in North 6 mph 9.8 mph 62% 0 in 0 W/m2
03:23 73 °F 59.4 °F 29.9 in NNW 6.9 mph 10.7 mph 62% 0 in 0 W/m2
03:28 73.2 °F 59.5 °F 29.9 in NNW 6 mph 11.4 mph 62% 0 in 0 W/m2
03:33 73.4 °F 59.2 °F 29.9 in North 4.5 mph 12.1 mph 61% 0 in 0 W/m2
03:38 73.4 °F 59.2 °F 29.9 in North 5.4 mph 12.1 mph 61% 0 in 0 W/m2
03:43 73.2 °F 59.5 °F 29.9 in NNW 4.5 mph 9.8 mph 62% 0 in 0 W/m2
03:48 73 °F 59.4 °F 29.9 in NNW 3.1 mph 9.8 mph 62% 0 in 0 W/m2
03:53 72.9 °F 59.5 °F 29.9 in North 3.8 mph 9.2 mph 63% 0 in 0 W/m2
03:58 72.9 °F 59.5 °F 29.9 in NNW 3.8 mph 8.3 mph 63% 0 in 0 W/m2
04:03 72.9 °F 59.5 °F 29.9 in NNW 5.4 mph 8.3 mph 63% 0 in 0 W/m2
04:08 72.9 °F 59.5 °F 29.9 in NNW 3.8 mph 8.3 mph 63% 0 in 0 W/m2
04:13 72.7 °F 59.7 °F 29.9 in North 6 mph 9.2 mph 64% 0 in 0 W/m2
04:18 72.5 °F 59.7 °F 29.9 in NNW 3.8 mph 9.2 mph 64% 0 in 0 W/m2
04:23 72.3 °F 59.5 °F 29.9 in NNW 5.4 mph 9.2 mph 64% 0 in 0 W/m2
04:28 72.1 °F 58.8 °F 29.9 in North 2.2 mph 8.3 mph 63% 0 in 0 W/m2
04:33 72 °F 59.2 °F 29.9 in North 3.1 mph 7.6 mph 64% 0 in 0 W/m2
04:38 72.1 °F 59.4 °F 29.9 in North 2.2 mph 7.6 mph 64% 0 in 0 W/m2
04:43 72.1 °F 59.4 °F 29.9 in NNW 6 mph 8.3 mph 64% 0 in 0 W/m2
04:48 72.1 °F 59.4 °F 29.9 in NNW 3.8 mph 8.3 mph 64% 0 in 0 W/m2
04:53 72.1 °F 59.4 °F 29.9 in NW 4.5 mph 8.3 mph 64% 0 in 0 W/m2
04:58 72.1 °F 59.7 °F 29.8 in NNW 3.8 mph 8.3 mph 65% 0 in 0 W/m2
05:03 72.3 °F 59.9 °F 29.8 in North 5.4 mph 8.3 mph 65% 0 in 0 W/m2
05:08 72.5 °F 59.7 °F 29.9 in North 4.5 mph 9.8 mph 64% 0 in 0 W/m2
05:13 72.7 °F 59.7 °F 29.9 in NNW 4.5 mph 9.8 mph 64% 0 in 0 W/m2
05:18 72.7 °F 59.7 °F 29.9 in North 3.8 mph 9.2 mph 64% 0 in 0 W/m2
05:23 72.3 °F 59.5 °F 29.9 in North 3.1 mph 9.2 mph 64% 0 in 0 W/m2
05:28 72.1 °F 59.7 °F 29.9 in North 5.4 mph 9.2 mph 65% 0 in 0 W/m2
05:33 72.1 °F 59.7 °F 29.9 in North 3.1 mph 8.3 mph 65% 0 in 0 W/m2
05:38 72.3 °F 59.5 °F 29.9 in North 6 mph 8.3 mph 64% 0 in 0 W/m2
05:43 72.5 °F 59.7 °F 29.9 in North 4.5 mph 8.3 mph 64% 0 in 0 W/m2
05:48 72.7 °F 59.4 °F 29.9 in North 6 mph 9.8 mph 63% 0 in 0 W/m2
05:53 72.9 °F 59.5 °F 29.9 in NNW 4.5 mph 11.4 mph 63% 0 in 0 W/m2
05:58 73 °F 59.7 °F 29.9 in North 6 mph 11.4 mph 63% 0 in 0 W/m2
06:03 73 °F 59.7 °F 29.9 in North 6.9 mph 11.4 mph 63% 0 in 0 W/m2
06:08 73 °F 59.7 °F 29.9 in North 6 mph 11.4 mph 63% 0 in 0 W/m2
06:13 73 °F 59.7 °F 29.9 in North 5.4 mph 9.8 mph 63% 0 in 0 W/m2
06:18 73 °F 59.7 °F 29.9 in North 4.5 mph 13 mph 63% 0 in 0 W/m2
06:23 73.2 °F 59.9 °F 29.9 in North 6.9 mph 13 mph 63% 0 in 0 W/m2
06:28 73.4 °F 60.1 °F 29.9 in NNW 5.4 mph 11.4 mph 63% 0 in 1 W/m2
06:33 73.6 °F 60.3 °F 29.9 in NNW 3.1 mph 11.4 mph 63% 0 in 2 W/m2
06:38 73.6 °F 60.3 °F 29.9 in North 6 mph 9.8 mph 63% 0 in 5 W/m2
06:43 73.8 °F 60.4 °F 29.9 in NNE 5.4 mph 9.8 mph 63% 0 in 9 W/m2
06:48 73.8 °F 60.4 °F 29.9 in NNE 5.4 mph 9.8 mph 63% 0 in 12 W/m2
06:53 73.8 °F 61 °F 29.9 in North 2.2 mph 8.3 mph 64% 0 in 18 W/m2
06:58 73.6 °F 60.6 °F 29.9 in NNW 1.6 mph 8.3 mph 64% 0 in 24 W/m2
07:03 73.6 °F 61.2 °F 29.9 in NNW 1.6 mph 6 mph 65% 0 in 30 W/m2
07:08 73.4 °F 61 °F 29.9 in Calm   4.5 mph 65% 0 in 36 W/m2
07:13 73 °F 60.3 °F 29.9 in Calm   3.8 mph 64% 0 in 48 W/m2
07:18 73.2 °F 60.8 °F 29.9 in Calm   1.6 mph 65% 0 in 47 W/m2
07:23 73.4 °F 61.3 °F 29.9 in NE 0.7 mph 2.2 mph 66% 0 in 52 W/m2
07:28 73.8 °F 61.7 °F 29.9 in Calm   2.2 mph 66% 0 in 57 W/m2
07:33 73.9 °F 61.9 °F 29.9 in Calm   2.2 mph 66% 0 in 64 W/m2
07:38 74.1 °F 61.5 °F 29.9 in Calm     65% 0 in 72 W/m2
07:43 74.5 °F 62.1 °F 29.9 in Calm   2.2 mph 65% 0 in 84 W/m2
07:48 74.7 °F 62.1 °F 29.9 in Calm   2.2 mph 65% 0 in 89 W/m2
07:53 74.8 °F 62.2 °F 29.9 in Calm   2.2 mph 65% 0 in 96 W/m2
07:58 75.2 °F 62.2 °F 29.9 in NNE 3.1 mph 3.8 mph 64% 0 in 118 W/m2
08:03 75.6 °F 62.6 °F 29.9 in North 1.6 mph 4.5 mph 64% 0 in 98 W/m2
08:08 75.9 °F 62.4 °F 29.9 in North 2.2 mph 5.4 mph 63% 0 in 100 W/m2
08:13 76.5 °F 63 °F 29.9 in Calm   5.4 mph 63% 0 in 115 W/m2
08:18 77.2 °F 62.8 °F 29.9 in Calm   3.8 mph 61% 0 in 104 W/m2
08:23 77.7 °F 62.8 °F 29.9 in Calm   1.6 mph 60% 0 in 124 W/m2
08:28 78.4 °F 62.4 °F 29.9 in NE 0.7 mph 3.1 mph 58% 0 in 132 W/m2
08:33 78.6 °F 62.2 °F 29.9 in Calm   3.1 mph 57% 0 in 119 W/m2
08:38 78.8 °F 61.9 °F 29.9 in North 1.6 mph 3.8 mph 56% 0 in 125 W/m2
08:43 79.2 °F 62.8 °F 29.9 in NNW 0.7 mph 3.8 mph 57% 0 in 295 W/m2
08:48 81.1 °F 62.4 °F 29.9 in NNW 3.1 mph 6 mph 53% 0 in 340 W/m2
08:53 82 °F 62.8 °F 29.9 in North 3.1 mph 6 mph 52% 0 in 334 W/m2
08:58 82.9 °F 62.4 °F 29.9 in NNE 2.2 mph 6 mph 50% 0 in 310 W/m2
09:03 83.5 °F 62.4 °F 29.9 in NNE 1.6 mph 6 mph 49% 0 in 389 W/m2
09:08 85.3 °F 62.8 °F 29.9 in NNE 4.5 mph 7.6 mph 47% 0 in 424 W/m2
09:13 85.3 °F 62.8 °F 29.9 in NE 6.9 mph 8.3 mph 47% 0 in 436 W/m2
09:18 84.6 °F 62.8 °F 29.9 in NNE 3.1 mph 8.3 mph 48% 0 in 395 W/m2
09:23 85.3 °F 62.8 °F 29.9 in NNE 0.7 mph 7.6 mph 47% 0 in 445 W/m2
09:28 85.8 °F 63.3 °F 29.9 in NNE 2.2 mph 6 mph 47% 0 in 476 W/m2
09:33 85.6 °F 63.1 °F 29.9 in NNW 3.1 mph 6 mph 47% 0 in 525 W/m2
09:38 86.7 °F 63.5 °F 29.9 in NNW 3.8 mph 6.9 mph 46% 0 in 601 W/m2
09:43 86.5 °F 62.8 °F 29.9 in NNW 3.8 mph 6.9 mph 45% 0 in 610 W/m2
09:48 87.3 °F 63.3 °F 29.9 in North 3.8 mph 6.9 mph 45% 0 in 586 W/m2
09:53 87.8 °F 62.6 °F 29.9 in NW 4.5 mph 9.2 mph 43% 0 in 577 W/m2
09:58 86.7 °F 63 °F 29.9 in SSW 3.1 mph 9.2 mph 45% 0 in 586 W/m2
10:03 86.7 °F 63 °F 29.9 in SSW 5.4 mph 9.2 mph 45% 0 in 601 W/m2
10:08 87.1 °F 63.1 °F 29.9 in SW 3.8 mph 9.2 mph 45% 0 in 614 W/m2
10:13 87.4 °F 63 °F 29.9 in SW 4.5 mph 10.7 mph 44% 0 in 626 W/m2
10:19 87.4 °F 63 °F 29.9 in WSW 6 mph 10.7 mph 44% 0 in 647 W/m2
10:24 87.1 °F 62.6 °F 29.9 in SW 7.6 mph 9.8 mph 44% 0 in 669 W/m2
10:29 87.3 °F 62.8 °F 29.9 in SSW 4.5 mph 9.8 mph 44% 0 in 676 W/m2
10:34 87.8 °F 62.6 °F 29.9 in SSW 8.3 mph 10.7 mph 43% 0 in 691 W/m2
10:39 87.6 °F 63.1 °F 29.9 in SSW 6.9 mph 10.7 mph 44% 0 in 711 W/m2
10:44 87.4 °F 63 °F 29.9 in SW 6.9 mph 10.7 mph 44% 0 in 729 W/m2
10:49 87.3 °F 62.8 °F 29.9 in SW 6 mph 13 mph 44% 0 in 748 W/m2
10:54 86.9 °F 63.7 °F 29.9 in SSW 6.9 mph 13 mph 46% 0 in 760 W/m2
10:59 85.1 °F 63.9 °F 29.9 in South 4.5 mph 9.8 mph 49% 0 in 776 W/m2
11:04 84 °F 62.2 °F 29.9 in South 8.3 mph 10.7 mph 48% 0 in 810 W/m2
11:09 84.4 °F 62.1 °F 29.9 in South 7.6 mph 12.1 mph 47% 0 in 827 W/m2
11:14 84.6 °F 62.8 °F 29.9 in South 8.3 mph 12.1 mph 48% 0 in 843 W/m2
11:19 84.9 °F 62.4 °F 29.9 in South 6.9 mph 10.7 mph 47% 0 in 867 W/m2
11:35 84.2 °F 61.2 °F 29.9 in South 5.4 mph 10.7 mph 46% 0 in 913 W/m2
11:40 84.2 °F 61.9 °F 29.9 in South 4.5 mph 10.7 mph 47% 0 in 923 W/m2
11:45 85.1 °F 62.1 °F 29.9 in SSW 5.4 mph 10.7 mph 46% 0 in 935 W/m2
11:50 85.6 °F 62.4 °F 29.9 in SSW 6.9 mph 9.2 mph 46% 0 in 949 W/m2
11:55 86 °F 62.2 °F 29.9 in South 3.1 mph 9.2 mph 45% 0 in 957 W/m2
12:00 85.8 °F 62.1 °F 29.9 in South 6.9 mph 9.2 mph 45% 0 in 967 W/m2
12:05 85.5 °F 62.4 °F 29.9 in South 6.9 mph 8.3 mph 46% 0 in 972 W/m2
12:10 85.6 °F 61.9 °F 29.9 in South 6 mph 9.2 mph 45% 0 in 985 W/m2
12:15 86.2 °F 61.9 °F 29.9 in South 5.4 mph 9.2 mph 44% 0 in 992 W/m2
12:20 86.7 °F 63 °F 29.9 in SSW 6 mph 9.2 mph 45% 0 in 998 W/m2
12:25 85.6 °F 62.4 °F 29.9 in South 3.8 mph 9.2 mph 46% 0 in 1007 W/m2
12:30 86.2 °F 61.9 °F 29.9 in South 5.4 mph 8.3 mph 44% 0 in 998 W/m2
12:35 86.2 °F 62.4 °F 29.9 in South 4.5 mph 8.3 mph 45% 0 in 848 W/m2
12:40 86 °F 62.2 °F 29.9 in South 6.9 mph 9.2 mph 45% 0 in 1036 W/m2
12:45 86.2 °F 62.4 °F 29.9 in South 6 mph 11.4 mph 45% 0 in 1052 W/m2
12:50 86.2 °F 63 °F 29.9 in South 5.4 mph 12.1 mph 46% 0 in 1050 W/m2
12:55 86.7 °F 63.5 °F 29.9 in SSW 7.6 mph 12.1 mph 46% 0 in 1059 W/m2
13:00 86.9 °F 63.7 °F 29.9 in SSW 7.6 mph 11.4 mph 46% 0 in 1099 W/m2
13:05 86.7 °F 64 °F 29.9 in South 8.3 mph 11.4 mph 47% 0 in 1067 W/m2
13:10 86.2 °F 63.7 °F 29.9 in South 5.4 mph 11.4 mph 47% 0 in 1064 W/m2
13:15 86.4 °F 63.9 °F 29.9 in South 6.9 mph 11.4 mph 47% 0 in 1064 W/m2
13:20 86.7 °F 63.5 °F 29.9 in South 6 mph 10.7 mph 46% 0 in 1055 W/m2
13:25 86.9 °F 63.1 °F 29.9 in South 7.6 mph 13 mph 45% 0 in 1044 W/m2
13:30 87.3 °F 62.8 °F 29.9 in South 4.5 mph 13 mph 44% 0 in 1023 W/m2
13:35 85.6 °F 67.1 °F 29.9 in South 7.6 mph 13.6 mph 54% 0 in 1007 W/m2
13:40 84.6 °F 65.1 °F 29.9 in SSE 5.4 mph 13.6 mph 52% 0 in 987 W/m2
13:45 84.6 °F 65.7 °F 29.9 in SSE 3.8 mph 9.8 mph 53% 0 in 984 W/m2
13:50 83.3 °F 65.5 °F 29.9 in SE 9.2 mph 14.5 mph 55% 0 in 1028 W/m2
13:55 82.8 °F 65.5 °F 29.9 in SE 6.9 mph 14.5 mph 56% 0 in 411 W/m2
14:00 81 °F 64.2 °F 29.9 in SSE 6.9 mph 12.1 mph 57% 0 in 301 W/m2
14:05 80.2 °F 65.7 °F 29.9 in SE 5.4 mph 12.1 mph 61% 0 in 349 W/m2
14:10 79 °F 65.8 °F 29.9 in SE 8.3 mph 13.6 mph 64% 0 in 333 W/m2
14:15 77.9 °F 65.7 °F 29.9 in SE 5.4 mph 13.6 mph 66% 0 in 312 W/m2
14:33 78.1 °F 64 °F 29.9 in SE 5.4 mph 13 mph 62% 0 in 280 W/m2
14:38 78.6 °F 64.9 °F 29.9 in SE 8.3 mph 15.2 mph 63% 0 in 239 W/m2
14:43 78.4 °F 64.4 °F 29.9 in SE 5.4 mph 15.2 mph 62% 0 in 229 W/m2
14:48 78.1 °F 64.9 °F 29.9 in SE 4.5 mph 15.2 mph 64% 0 in 247 W/m2
14:53 77 °F 65.1 °F 30 in SE 3.1 mph 13.6 mph 67% 0 in 307 W/m2
14:58 76.8 °F 66.4 °F 30 in SSE 7.6 mph 15.2 mph 70% 0 in 395 W/m2
15:03 76.6 °F 66.9 °F 30 in SSE 8.3 mph 15.2 mph 72% 0 in 420 W/m2
15:08 76.8 °F 67.3 °F 30 in SE 9.2 mph 15.2 mph 72% 0 in 379 W/m2
15:13 76.8 °F 66.4 °F 30 in SSE 3.1 mph 15.2 mph 70% 0 in 365 W/m2
15:18 76.3 °F 66.6 °F 30 in SSE 6 mph 15.2 mph 72% 0 in 375 W/m2
15:23 75.9 °F 66.7 °F 30 in South 9.2 mph 12.1 mph 73% 0 in 291 W/m2
15:28 75 °F 66.6 °F 30 in SSW 10.7 mph 13.6 mph 75% 0 in 257 W/m2
15:33 75 °F 67.5 °F 30 in SSW 9.2 mph 13.6 mph 77% 0 in 239 W/m2
15:38 74.5 °F 67.3 °F 30 in SSW 11.4 mph 14.5 mph 78% 0 in 238 W/m2
15:43 73.9 °F 67.5 °F 30 in SSW 6.9 mph 14.5 mph 80% 0 in 307 W/m2
15:48 74.1 °F 68 °F 30 in SSW 5.4 mph 13.6 mph 81% 0 in 443 W/m2
15:53 75.2 °F 68.5 °F 30 in SSW 8.3 mph 13.6 mph 80% 0 in 699 W/m2
15:58 74.7 °F 67.8 °F 30 in South 9.2 mph 15.9 mph 79% 0 in 430 W/m2
16:03 74.1 °F 68 °F 30 in South 9.2 mph 15.9 mph 81% 0 in 279 W/m2
16:08 73.9 °F 68.2 °F 30 in SSW 6.9 mph 15.2 mph 82% 0 in 187 W/m2
16:13 72.9 °F 67.1 °F 30 in SSW 7.6 mph 15.2 mph 82% 0 in 166 W/m2
16:18 72.3 °F 66.6 °F 30 in South 10.7 mph 14.5 mph 82% 0 in 171 W/m2
16:23 71.8 °F 66.4 °F 30 in South 6 mph 15.2 mph 83% 0 in 164 W/m2
16:28 71.4 °F 66.4 °F 30 in South 7.6 mph 15.2 mph 84% 0 in 146 W/m2
16:33 71.2 °F 66.9 °F 30 in South 7.6 mph 14.5 mph 86% 0 in 109 W/m2
16:38 71.1 °F 66.7 °F 30 in South 6 mph 14.5 mph 86% 0 in 105 W/m2
16:43 71.1 °F 66.9 °F 30 in South 5.4 mph 14.5 mph 87% 0 in 100 W/m2
16:48 71.1 °F 66.7 °F 30 in SSW 5.4 mph 11.4 mph 86% 0 in 86 W/m2
16:53 70.7 °F 66.7 °F 30 in SSW 4.5 mph 13 mph 87% 0 in 78 W/m2
16:58 70.5 °F 66.7 °F 30 in SSW 4.5 mph 13 mph 88% 0 in 81 W/m2
17:03 70.3 °F 66.4 °F 30 in SSW 5.4 mph 11.4 mph 87% 0 in 79 W/m2
17:08 70.3 °F 66.7 °F 30 in South 6.9 mph 11.4 mph 88% 0 in 65 W/m2
17:13 70.3 °F 66.7 °F 30 in South 8.3 mph 11.4 mph 88% 0 in 54 W/m2
17:18 69.8 °F 66 °F 30 in South 9.2 mph 13 mph 88% 0 in 49 W/m2
17:23 69.6 °F 66.6 °F 30 in South 6 mph 13 mph 90% 0 in 43 W/m2
17:28 69.4 °F 66 °F 30 in SSW 9.2 mph 16.8 mph 89% 0 in 41 W/m2
17:33 68.7 °F 66 °F 30 in SSW 9.2 mph 16.8 mph 91% 0 in 34 W/m2
17:38 68.2 °F 65.8 °F 30 in SSW 9.8 mph 15.2 mph 92% 0 in 29 W/m2
17:43 67.6 °F 65.8 °F 30 in SSW 8.3 mph 15.2 mph 94% 0 in 28 W/m2
17:48 67.3 °F 65.8 °F 30 in SSW 8.3 mph 14.5 mph 95% 0 in 22 W/m2
17:53 66.9 °F 65.5 °F 30 in SSW 9.2 mph 13.6 mph 95% 0 in 24 W/m2
17:58 66.7 °F 65.7 °F 30 in SSW 7.6 mph 14.5 mph 96% 0 in 19 W/m2
18:03 66.7 °F 65.7 °F 30 in SSW 6 mph 14.5 mph 96% 0 in 21 W/m2
18:08 66.6 °F 65.7 °F 30 in SSW 6 mph 13 mph 97% 0 in 18 W/m2
18:13 66.4 °F 65.5 °F 30 in SW 3.8 mph 13 mph 97% 0 in 23 W/m2
18:18 66.2 °F 65.5 °F 30 in SW 7.6 mph 13 mph 97% 0 in 24 W/m2
18:23 66.2 °F 65.5 °F 30 in SW 6 mph 11.4 mph 97% 0 in 23 W/m2
18:28 65.8 °F 65.7 °F 30 in SSW 9.2 mph 15.2 mph 99% 0 in 16 W/m2
18:33 65.8 °F 65.3 °F 30 in SSW 6.9 mph 15.2 mph 98% 0 in 16 W/m2
18:38 65.8 °F 65.3 °F 30 in SSW 11.4 mph 15.2 mph 98% 0 in 14 W/m2
18:43 65.7 °F 65.1 °F 30 in SSW 8.3 mph 15.2 mph 98% 0 in 14 W/m2
18:48 65.7 °F 65.1 °F 30 in SSW 9.8 mph 15.2 mph 98% 0 in 12 W/m2
18:53 65.3 °F 64.8 °F 30 in SSW 7.6 mph 16.8 mph 98% 0 in 13 W/m2
18:58 65.3 °F 64.8 °F 30 in SSW 6 mph 16.8 mph 98% 0 in 15 W/m2
19:03 65.3 °F 64.8 °F 30 in SSW 8.3 mph 12.1 mph 98% 0 in 14 W/m2
19:08 65.1 °F 64.6 °F 30 in SW 8.3 mph 13 mph 98% 0 in 12 W/m2
19:13 65.1 °F 64.2 °F 30 in SW 6.9 mph 13.6 mph 97% 0 in 13 W/m2
19:18 64.9 °F 64.4 °F 30 in SSW 9.8 mph 13.6 mph 98% 0 in 13 W/m2
19:23 64.9 °F 64.4 °F 30 in SSW 9.2 mph 13.6 mph 98% 0 in 11 W/m2
19:28 64.8 °F 64.2 °F 30 in SSW 6.9 mph 14.5 mph 98% 0 in 11 W/m2
19:33 64.6 °F 64 °F 30 in SSW 11.4 mph 14.5 mph 98% 0 in 9 W/m2
19:38 64.4 °F 63.9 °F 30 in SW 6.9 mph 13.6 mph 98% 0 in 5 W/m2
19:43 64.4 °F 64 °F 30 in SW 9.2 mph 13.6 mph 99% 0 in 4 W/m2
19:48 64.4 °F 64 °F 30 in SSW 4.5 mph 11.4 mph 99% 0 in 2 W/m2
19:53 64.6 °F 64.2 °F 30 in SSW 6 mph 11.4 mph 99% 0 in 1 W/m2
19:58 64.4 °F 64 °F 30 in SW 6.9 mph 12.1 mph 99% 0 in 0 W/m2
20:03 64.4 °F 64 °F 30 in SSW 10.7 mph 14.5 mph 99% 0 in 0 W/m2
20:08 64.2 °F 63.3 °F 30 in SSW 7.6 mph 14.5 mph 97% 0 in 0 W/m2
20:13 64.2 °F 63.3 °F 30 in South 5.4 mph 13.6 mph 97% 0 in 0 W/m2
20:18 64.2 °F 63.3 °F 30 in SSW 6.9 mph 13 mph 97% 0 in 0 W/m2
20:23 64 °F 63.1 °F 30.1 in SSW 9.2 mph 13 mph 97% 0 in 0 W/m2
20:28 64 °F 63.1 °F 30 in South 6 mph 13 mph 97% 0 in 0 W/m2
20:33 64 °F 63.1 °F 30.1 in SSW 6 mph 13 mph 97% 0 in 0 W/m2
20:38 64 °F 63.1 °F 30 in SSW 6 mph 11.4 mph 97% 0 in 0 W/m2
20:43 64 °F 63.1 °F 30 in SSW 6 mph 13 mph 97% 0 in 0 W/m2
20:48 64 °F 63.1 °F 30.1 in SSW 9.2 mph 13.6 mph 97% 0 in 0 W/m2
20:53 63.9 °F 63 °F 30.1 in SW 5.4 mph 13.6 mph 97% 0 in 0 W/m2
20:58 63.9 °F 63 °F 30.1 in SSW 5.4 mph 12.1 mph 97% 0 in 0 W/m2
21:03 63.9 °F 63 °F 30.1 in SSW 7.6 mph 12.1 mph 97% 0 in 0 W/m2
21:08 63.9 °F 63 °F 30.1 in SSW 7.6 mph 12.1 mph 97% 0 in 0 W/m2
21:13 63.7 °F 62.8 °F 30.1 in SSW 7.6 mph 12.1 mph 97% 0 in 0 W/m2
21:18 63.5 °F 62.8 °F 30.1 in SW 7.6 mph 13.6 mph 97% 0.01 in 0 W/m2
21:23 63.5 °F 62.8 °F 30.1 in SW 6.9 mph 13.6 mph 97% 0.01 in 0 W/m2
21:28 63.3 °F 62.4 °F 30.1 in SW 4.5 mph 12.1 mph 97% 0.01 in 0 W/m2
21:33 63.1 °F 62.2 °F 30.1 in SW 9.2 mph 13.6 mph 97% 0.02 in 0 W/m2
21:38 63.1 °F 62.2 °F 30.1 in SW 4.5 mph 13.6 mph 97% 0.02 in 0 W/m2
21:43 63.3 °F 62.4 °F 30.1 in SW 9.8 mph 13 mph 97% 0.04 in 0 W/m2
21:48 63.3 °F 62.4 °F 30.1 in SW 6.9 mph 12.1 mph 97% 0.04 in 0 W/m2
21:53 63.1 °F 62.2 °F 30.1 in SW 10.7 mph 15.9 mph 97% 0.04 in 0 W/m2
21:58 63 °F 62.1 °F 30.1 in SW 8.3 mph 16.8 mph 97% 0.05 in 0 W/m2
22:03 62.8 °F 61.9 °F 30.1 in SW 8.3 mph 17.4 mph 97% 0.05 in 0 W/m2
22:08 62.6 °F 61.9 °F 30.1 in SW 13 mph 17.4 mph 97% 0.06 in 0 W/m2
22:13 62.2 °F 61.7 °F 30.1 in SW 9.8 mph 17.4 mph 98% 0.06 in 0 W/m2
22:18 62.6 °F 61.9 °F 30.1 in SW 11.4 mph 16.8 mph 97% 0.05 in 0 W/m2
22:23 62.4 °F 61.9 °F 30.1 in SW 16.8 mph 24.4 mph 98% 0.06 in 0 W/m2
22:28 62.2 °F 61.7 °F 30.1 in SW 13.6 mph 24.4 mph 98% 0.06 in 0 W/m2
22:33 62.1 °F 61.5 °F 30.1 in SW 11.4 mph 19.7 mph 98% 0.06 in 0 W/m2
22:38 61.9 °F 61.3 °F 30.1 in SW 13 mph 19.7 mph 98% 0.06 in 0 W/m2
22:43 62.1 °F 61.5 °F 30.1 in SW 9.2 mph 19.7 mph 98% 0.06 in 0 W/m2
22:48 62.2 °F 61.7 °F 30.1 in SW 13 mph 19.7 mph 98% 0.06 in 0 W/m2
22:53 62.1 °F 61.5 °F 30.1 in SW 9.8 mph 19 mph 98% 0.06 in 0 W/m2
22:58 62.2 °F 61.7 °F 30.1 in SW 9.2 mph 17.4 mph 98% 0.06 in 0 W/m2
23:03 62.1 °F 61.5 °F 30.1 in SW 8.3 mph 19 mph 98% 0.06 in 0 W/m2
23:08 62.1 °F 61.5 °F 30.1 in SW 6.9 mph 19 mph 98% 0.06 in 0 W/m2
23:13 61.9 °F 61.3 °F 30.1 in SW 9.8 mph 18.3 mph 98% 0.07 in 0 W/m2
23:18 61.7 °F 61.2 °F 30.1 in SW 11.4 mph 19 mph 98% 0.08 in 0 W/m2
23:23 61.7 °F 61.2 °F 30.1 in SW 7.6 mph 19 mph 98% 0.07 in 0 W/m2
23:28 61.7 °F 61.2 °F 30.1 in WSW 8.3 mph 19 mph 98% 0.08 in 0 W/m2
23:33 61.5 °F 61 °F 30.1 in WSW 5.4 mph 13.6 mph 98% 0.07 in 0 W/m2
23:38 61.5 °F 61 °F 30.1 in WSW 6.9 mph 11.4 mph 98% 0.07 in 0 W/m2
23:43 61.5 °F 61 °F 30.1 in WSW 4.5 mph 11.4 mph 98% 0.06 in 0 W/m2
23:48 61.3 °F 60.8 °F 30.1 in SW 3.8 mph 10.7 mph 98% 0.06 in 0 W/m2
23:53 61.3 °F 60.8 °F 30.1 in SW 3.8 mph 9.8 mph 98% 0.07 in 0 W/m2
23:58 61.5 °F 61 °F 30.1 in WSW 6 mph 10.7 mph 98% 0.06 in 0 W/m2
Northern Hawkes Bay. New Zealand Historic Data
Compliments of Weather Underground - 2.25 mb